YAOGAN-30 V (46808 NORAD) Tracking and Keplerian Element Data

This shows tracking and keplerian element data for the satellite.

Feedback or suggestion? Click here.




ElementValue
Catalog46808
NameYAOGAN-30 V
Epoch Orbit539
Epoch Day336.81429955
Epoch Year2020
RAAN24.8205
Inclination34.9986
Eccentricity0.000133
Argument of Perigee125.5315
Mean Anonmoly234.5519
Mean Motion14.89824749
Decay Rate4.28E-06
L11 46808U 20076B 20336.81429955 .00000428 00000-0 46490-4 0 9999
L22 46808 34.9986 24.8205 0001330 125.5315 234.5519 14.89824749 5399

Live tracking and technical data element details for YAOGAN-30 V (NORAD 46808). YAOGAN-30 V can be tracked NOW for your location showing map with azimuth and elevation plus other details from your city location.

Track the satellite on the map from your city or location and see movement details for azimuth, elevation, latitude, longitude, range, height, and movement on the map or in text.







IsCatalogInMostPopularTable: catalog: 46808, numindb: 10
Update: records affected: 1



GetName: 46808 YAOGAN-30 V

Hit Count: updated at: Wed, 02 Dec 2020 19:38:49 GMT